Flag for Spain Weather past 2 weeks in Alicante, Spain

Now
70 °F

Scattered clouds.


Feels Like: 70 °F
Forecast: 56 / 76 °F
Wind: 5 mph from East

Location: Alicante / El Altet

Current Time: May 27, 2015 at 10:00:49 AM

Latest Report: May 27, 2015 at 9:30 AM


Visibility: N/A

Pressure: 30.07 "Hg

Humidity: 73%

Dew point: 61 °F

Location of AlicanteLocation

Historic Weather in Alicante — Graph

°F

Alicante temperature yesterday

Maximum temperature yesterday: 79 °F (at 12:30 PM)
Minimum temperature yesterday: 59 °F (at 4:00 AM)
Average temperature yesterday: 70 °F

Past Weeks' High & Low Weather Summary

 TemperatureHumidityPressure
High99 °F (May 14, 3:00 PM)100% (May 13, 3:00 AM)30.27 "Hg (May 13, 3:00 AM)
Low54 °F (May 23, 5:30 AM)9% (May 15, 12:00 AM)29.71 "Hg (May 19, 6:30 AM)
Average69 °F56%30.07 "Hg
* Reported May 12 9:00 AM — May 27 9:00 AM, Alicante, Weather by CustomWeather, © 2015

Note: Actual official high and low records may vary slightly from our data, if they occured in-between our weather recording intervals... More about our weather records

Advertising

Alicante weather history for previous 24 hours

 ConditionsComfort  
Time TempWeatherWind HumidityBarometerVisibility
9:00 AM
Wed, May 27
70 °FScattered clouds.6 mph78%30.07 "HgN/A
8:30 AM70 °FScattered clouds.6 mph78%30.07 "HgN/A
8:00 AM68 °FScattered clouds.6 mph83%30.07 "HgN/A
7:30 AM68 °FPassing clouds.3 mph83%30.07 "HgN/A
7:00 AM66 °FPassing clouds.3 mph78%30.04 "HgN/A
6:30 AM66 °FPassing clouds.3 mph78%30.04 "HgN/A
6:00 AM66 °FPassing clouds.3 mph78%30.04 "HgN/A
5:30 AM66 °FPassing clouds.3 mph73%30.04 "HgN/A
5:00 AM66 °FPassing clouds.2 mph73%30.04 "HgN/A
4:30 AM66 °FPassing clouds.5 mph78%30.04 "HgN/A
4:00 AM66 °FPassing clouds.3 mph83%30.01 "HgN/A
3:30 AM66 °FPassing clouds.3 mph88%30.01 "HgN/A
3:00 AM66 °FPassing clouds.3 mph88%30.04 "HgN/A
2:30 AM66 °FPassing clouds.3 mph83%30.04 "HgN/A
2:00 AM66 °FClear.3 mph88%30.04 "Hg10 mi
1:30 AM66 °FClear.6 mph88%30.04 "Hg10 mi
1:00 AM68 °FClear.6 mph83%30.04 "Hg10 mi
12:30 AM68 °FClear.5 mph78%30.04 "Hg10 mi
12:00 AM68 °FPassing clouds.5 mph78%30.04 "HgN/A
11:30 PM
Tue, May 26
68 °FClear.6 mph78%30.01 "Hg10 mi
10:30 PM70 °FPassing clouds.7 mph73%30.01 "HgN/A
10:00 PM70 °FSunny.7 mph73%30.01 "Hg10 mi
9:30 PM70 °FPassing clouds.7 mph73%29.98 "HgN/A
9:00 PM70 °FPassing clouds.7 mph73%29.98 "HgN/A
8:30 PM72 °FPassing clouds.7 mph69%29.98 "HgN/A
8:00 PM72 °FPassing clouds.9 mph69%29.98 "HgN/A
7:30 PM73 °FPassing clouds.10 mph65%29.98 "HgN/A
7:00 PM77 °FPassing clouds.8 mph47%29.98 "HgN/A
6:30 PM77 °FPassing clouds.10 mph44%29.98 "HgN/A
6:00 PM77 °FPassing clouds.12 mph44%29.98 "HgN/A
5:30 PM79 °FPassing clouds.13 mph39%29.98 "HgN/A
5:00 PM77 °FPassing clouds.16 mph44%29.98 "HgN/A
4:30 PM79 °FPassing clouds.15 mph39%29.98 "HgN/A
4:00 PM79 °FPassing clouds.17 mph39%29.98 "HgN/A
3:30 PM79 °FPassing clouds.18 mph39%29.98 "HgN/A
3:00 PM79 °FPassing clouds.15 mph39%29.98 "HgN/A
2:30 PM79 °FPassing clouds.16 mph37%29.98 "HgN/A
2:00 PM79 °FPassing clouds.16 mph37%29.98 "HgN/A
1:30 PM79 °FPassing clouds.15 mph34%29.98 "HgN/A
1:00 PM79 °FPassing clouds.12 mph37%30.01 "HgN/A
12:30 PM79 °FPassing clouds.10 mph34%30.01 "HgN/A
12:00 PM77 °FPassing clouds.7 mph36%30.01 "HgN/A
11:30 AM77 °FPassing clouds.7 mph36%30.01 "HgN/A
11:00 AM75 °FPassing clouds.8 mph39%30.01 "HgN/A
10:30 AM75 °FPassing clouds.5 mph36%30.01 "HgN/A
10:00 AM73 °FPassing clouds.5 mph38%30.01 "HgN/A
Weather by CustomWeather, © 2015

See weather overviewHow to use our weather pages